This demonstration page uses our WeatherBlox Daily Observations layout. Learn more.

Left ArrowRight Arrow

38.89511, -77.03637

Hourly Observations for March 28, 2020

Temp ( °F °C ) Dew Point ( °F °C ) Humidity (%) Winds ( mph kmh ) Pressure ( in mb ) Visibility ( mi km ) Precip ( " mm )
12:52 am 00:52 Cloudy 57 13.9 52 11.1 83 83 Calm 30.01 1016 10 16 0.01 0.25
1:52 am 01:52 Cloudy 58 14.4 53 11.7 84 84 NNW 3 6 30.03 1017 10 16 0.00 0.00
2:16 am 02:16 Cloudy with Thunderstorms 57 13.9 54 12.2 90 90 W 3 6 30.03 1017 6 10 0.00 0.00
2:35 am 02:35 Cloudy with Light Rain 57 13.9 53 11.7 87 87 Calm 30.03 1017 10 16 0.06 1.52
2:52 am 02:52 Cloudy with Light Rain 56 13.3 53 11.7 90 90 Calm 30.03 1017 9 14 0.07 1.78
2:57 am 02:57 Cloudy with Thunderstorms 56 13.3 53 11.7 90 90 NNW 3 6 30.04 1017 10 16 0.00 0.00
3:08 am 03:08 Cloudy with Strong Thunderstorms 56 13.3 53 11.7 90 90 SSW 3 6 30.04 1017 3 5 0.03 0.76
3:28 am 03:28 Cloudy with Light Rain 55 12.8 54 12.2 96 96 S 5 7 30.02 1017 7 11 0.10 2.54
3:52 am 03:52 Cloudy 55 12.8 53 11.7 93 93 S 5 7 30.01 1016 10 16 0.10 2.54
4:52 am 04:52 Cloudy 55 12.8 52 11.1 90 90 Calm 30.00 1016 10 16 0.01 0.25
5:52 am 05:52 Cloudy with Rain 55 12.8 53 11.7 93 93 ENE 7 11 30.01 1016 4 6 0.08 2.03
6:52 am 06:52 Cloudy with Light Rain 55 12.8 54 12.2 96 96 NE 6 9 30.03 1017 4 6 0.03 0.76
7:11 am 07:11 Cloudy with Light Rain 55 12.8 54 12.2 96 96 E 5 7 30.02 1017 3 4 0.01 0.25
7:22 am 07:22 Cloudy with Light Rain 55 12.8 54 12.2 96 96 ESE 3 6 30.03 1017 3 5 0.02 0.51
7:24 am 07:24 Cloudy with Light Rain 55 12.8 54 12.2 96 96 ESE 3 6 30.03 1017 3 5 0.02 0.51
7:52 am 07:52 Cloudy with Drizzle 55 12.8 53 11.7 93 93 E 5 7 30.03 1017 6 10 0.02 0.51
7:55 am 07:55 Cloudy 55 12.8 53 11.7 93 93 E 5 7 30.04 1017 7 11 0.00 0.00
8:17 am 08:17 Cloudy with Thunderstorms 55 12.8 53 11.7 93 93 N 6 9 30.09 1019 5 8 0.02 0.51
8:24 am 08:24 Cloudy with Strong Thunderstorms 54 12.2 53 11.7 97 97 NE 7 11 30.05 1018 3 4 0.08 2.03
8:28 am 08:28 Cloudy with Strong Thunderstorms 54 12.2 53 11.7 97 97 E 12 19 30.02 1017 2 3 0.12 3.05
8:35 am 08:35 Cloudy with Nearby Thunderstorms 54 12.2 52 11.1 93 93 ESE 13 20 30.00 1016 3 4 0.15 3.81
8:38 am 08:38 Cloudy with Light Rain 54 12.2 52 11.1 93 93 ESE 13 20 30.00 1016 4 6 0.15 3.81
8:46 am 08:46 Mostly Cloudy with Light Rain 54 12 52 11 94 94 ESE 9 15 30.00 1016 8 13 0.15 3.81
8:52 am 08:52 Mostly Cloudy 54 12.2 52 11.1 93 93 ESE 10 17 29.99 1016 10 16 0.15 3.81
9:29 am 09:29 Cloudy 56 13.3 53 11.7 90 90 NE 9 15 30.02 1017 10 16 0.00 0.00
9:32 am 09:32 Cloudy 56 13.3 53 11.7 90 90 ENE 8 13 30.02 1017 10 16 0.00 0.00
9:36 am 09:36 Cloudy 56 13.3 53 11.7 90 90 ENE 7 11 30.02 1017 10 16 0.00 0.00
9:52 am 09:52 Cloudy 56 13.3 52 11.1 87 87 E 12 19 30.01 1016 10 16 0.00 0.00
10:25 am 10:25 Cloudy 55 12.8 52 11.1 90 90 E 9 15 30.01 1016 10 16 0.00 0.00
10:52 am 10:52 Cloudy 56 13.3 53 11.7 90 90 ESE 7 11 30.00 1016 10 16 0.00 0.00
11:52 am 11:52 Cloudy 56 13.3 52 11.1 87 87 SSE 5 7 29.99 1016 10 16 0.00 0.00
12:18 pm 12:18 Cloudy with Drizzle 56 13.3 53 11.7 90 90 E 5 7 30.00 1016 5 8 0.00 0.00
12:38 pm 12:38 Cloudy 56 13.3 53 11.7 90 90 E 6 9 29.99 1016 9 14 0.00 0.00
12:52 pm 12:52 Cloudy 56 13.3 53 11.7 90 90 ESE 6 9 30.00 1016 10 16 0.00 0.00
1:52 pm 13:52 Cloudy 57 13.9 54 12.2 90 90 E 3 6 29.98 1015 10 16 0.00 0.00
2:06 pm 14:06 Cloudy 57 13.9 54 12.2 90 90 E 3 6 29.97 1015 10 16 0.00 0.00
2:25 pm 14:25 Cloudy 57 13.9 54 12.2 90 90 E 7 11 29.96 1015 10 16 0.00 0.00
2:52 pm 14:52 Cloudy 58 14.4 54 12.2 87 87 E 7 11 29.94 1014 10 16 0.00 0.00
3:52 pm 15:52 Cloudy 58 14.4 54 12.2 87 87 E 8 13 29.92 1013 10 16 0.00 0.00
4:52 pm 16:52 Cloudy 59 15 54 12.2 83 83 E 7 11 29.91 1013 10 16 0.00 0.00
5:20 pm 17:20 Cloudy 59 15 53 11.7 81 81 E 9 15 29.93 1014 10 16 0.00 0.00
5:52 pm 17:52 Cloudy 59 15 53 11.7 81 81 E 8 13 29.92 1013 10 16 0.00 0.00
6:31 pm 18:31 Cloudy 55 12.8 53 11.7 93 93 NE 12 19 29.96 1015 10 16 0.00 0.00
6:40 pm 18:40 Cloudy 55 12.8 53 11.7 93 93 NE 14 22 29.96 1015 9 14 0.00 0.00
6:44 pm 18:44 Cloudy 55 12.8 53 11.7 93 93 NE 13 20 29.96 1015 8 13 0.00 0.00
6:52 pm 18:52 Cloudy 54 12.2 52 11.1 93 93 NE 13 20 29.96 1015 7 11 0.00 0.00
7:52 pm 19:52 Cloudy 54 12.2 52 11.1 93 93 NE 8 13 29.98 1015 10 16 0.00 0.00
8:52 pm 20:52 Cloudy with Mist and Fog 52 11.1 51 10.6 97 97 N 17 28 30.02 1017 6 10 0.00 0.00
9:23 pm 21:23 Cloudy 52 11.1 50 10 93 93 NNE 12 19 30.01 1016 10 16 0.00 0.00
9:34 pm 21:34 Cloudy 52 11.1 50 10 93 93 NNE 14 22 30.01 1016 10 16 0.00 0.00
9:52 pm 21:52 Cloudy 52 11.1 50 10 93 93 NE 13 20 29.99 1016 10 16 0.00 0.00
10:52 pm 22:52 Cloudy 52 11.1 50 10 93 93 ENE 9 15 29.97 1015 9 14 0.00 0.00
11:52 pm 23:52 Cloudy 52 11.1 50 10 93 93 ENE 7 11 29.96 1015 8 13 0.00 0.00

Powered by AerisWeather